Volver al catálogo

STARLINK-33704

ActivoComunicacionesVLEO
NORAD 63650·PAYLOAD·🇺🇸 United States

Lanzado Apr 25, 2025 desde Cape Canaveral Space Force Station

Loading…

Próximos Pases (próximas 24 horas)

TLE

ActualizadoSource: CelesTrak SupGP

Época: Sep 15, 2026, 02:13 UTC

1 63650C 25083S   26258.09284722 -.00003082  00000+0 -11162-3 0  2581
2 63650  43.0024  15.5152 0001484 266.3159 110.2526 15.27584389    13

Sigue STARLINK-33704 en tiempo real con AllMySat

Download on the App Store